Date,TemperatureHighF,TemperatureAvgF,TemperatureLowF,DewpointHighF,DewpointAvgF,DewpointLowF,HumidityHigh,HumidityAvg,HumidityLow,PressureMaxIn,PressureMinIn,WindSpeedMaxMPH,WindSpeedAvgMPH,GustSpeedMaxMPH,PrecipitationSumIn
2012-11-18,28.0,24.1,21.0,23.0,20.5,20.0,96,86,72,0.00,40.00,19,14,33,0.00
2012-11-19,32.0,24.0,19.0,20.0,17.5,14.0,95,78,50,0.00,40.00,16,11,22,0.00
2012-11-20,37.0,30.3,23.0,19.0,9.7,1.0,87,45,26,0.00,40.00,13,10,22,0.00
2012-11-21,35.0,28.9,25.0,7.0,2.9,-2.0,45,33,24,0.00,40.00,19,14,32,0.00
2012-11-22,36.0,29.5,23.0,11.0,7.0,-6.0,51,39,19,0.00,40.00,14,10,26,0.00
2012-11-23,34.0,29.1,26.0,14.0,9.7,-6.0,59,45,18,0.00,40.00,15,12,21,0.00
2012-11-24,35.0,31.5,29.0,13.0,2.8,-9.0,49,31,16,0.00,40.00,16,10,21,0.00
2012-11-25,31.0,27.6,23.0,11.0,5.5,-5.0,50,39,22,0.00,40.00,16,12,30,0.00
2012-11-26,33.0,26.5,23.0,6.0,-4.1,-99.9,46,30,11,0.00,40.00,14,8,22,0.00
2012-11-27,32.0,25.3,19.0,4.0,-1.8,-14.0,48,32,14,0.00,40.00,18,14,27,0.00
2012-11-28,31.0,25.5,23.0,11.0,2.8,-8.0,58,38,24,0.00,40.00,16,13,26,0.00
2012-11-29,29.0,24.4,21.0,19.0,15.9,12.0,92,70,57,0.00,40.00,19,14,38,0.00
2012-11-30,29.0,23.8,20.0,22.0,19.8,16.0,95,85,72,0.00,40.00,19,16,36,0.00
2012-12-1,31.0,24.9,21.0,20.0,17.0,15.0,90,72,56,0.00,40.00,20,15,34,0.00
2012-12-2,31.0,23.9,21.0,21.0,16.7,10.0,93,75,49,0.00,40.00,21,16,48,0.00
2012-12-3,28.0,23.9,20.0,24.0,19.9,14.0,96,85,69,0.00,40.00,17,12,38,0.00
2012-12-4,32.0,27.0,20.0,19.0,-2.5,-99.9,94,38,19,0.00,40.00,16,9,22,0.00
2012-12-5,34.0,30.1,25.0,22.0,16.8,13.0,62,57,49,0.00,40.00,16,12,34,0.00
2012-12-6,27.0,22.9,21.0,19.0,11.3,-99.9,88,67,56,0.00,40.00,19,13,28,0.00
2012-12-7,23.0,20.2,17.0,20.0,17.3,15.0,96,88,72,0.00,40.00,15,10,28,0.00
2012-12-8,18.0,15.8,13.0,16.0,13.7,10.0,92,91,89,0.00,40.00,19,14,35,0.00
2012-12-9,12.0,5.1,-8.0,10.0,1.1,-17.0,89,83,58,0.00,40.00,16,12,35,0.00
2012-12-10,13.0,4.4,-5.0,0.0,-4.6,-18.0,84,67,39,0.00,40.00,17,10,28,0.00
2012-12-11,14.0,7.5,1.0,0.0,-2.5,-7.0,82,64,43,0.00,40.00,18,11,26,0.00
2012-12-13,25.0,21.1,18.0,8.0,6.2,4.0,60,52,42,0.00,40.00,16,12,39,0.00
2012-12-14,21.0,16.6,12.0,19.0,12.9,4.0,93,86,54,0.00,40.00,20,12,44,0.00
2012-12-15,12.0,10.8,9.0,10.0,7.8,6.0,89,88,87,0.00,40.00,15,8,27,0.00
2012-12-16,11.0,6.9,4.0,8.0,3.6,0.0,88,86,84,0.00,40.00,15,9,32,0.00
2012-12-17,17.0,7.8,2.0,15.0,4.6,-1.0,90,86,83,0.00,40.00,21,12,47,0.00
2012-12-18,16.0,11.6,8.0,14.0,9.1,5.0,91,88,86,0.00,40.00,21,11,48,0.00
2012-12-19,17.0,7.2,-7.0,15.0,4.0,-12.0,91,86,79,0.00,40.00,24,14,55,0.00
2012-12-20,17.0,10.0,-1.0,14.0,5.4,-5.0,86,81,70,0.00,40.00,13,9,32,0.00
2012-12-21,27.0,18.9,13.0,4.0,-5.6,-21.0,67,36,15,0.00,40.00,17,13,26,0.00
2012-12-22,26.0,19.8,14.0,1.0,-12.5,-19.0,55,24,12,0.00,40.00,17,15,28,0.00
2012-12-23,18.0,14.2,13.0,15.0,11.1,4.0,90,87,66,0.00,40.00,16,13,30,0.00
2012-12-24,13.0,11.1,9.0,10.0,8.3,6.0,89,88,87,0.00,40.00,18,12,33,0.00
2012-12-25,15.0,9.8,7.0,11.0,5.2,0.0,87,81,60,0.00,40.00,18,9,24,0.00
2012-12-26,11.0,7.9,6.0,4.0,0.6,-4.0,85,72,53,0.00,40.00,19,15,35,0.00
2012-12-27,7.0,4.3,2.0,3.0,0.7,-2.0,85,84,82,0.00,40.00,15,12,29,0.00
2012-12-28,6.0,0.8,-1.0,2.0,-3.4,-6.0,83,81,80,0.00,40.00,10,7,15,0.00
2012-12-29,20.0,13.9,5.0,-6.0,-23.2,-50.0,62,23,1,0.00,40.00,14,10,26,0.00
2012-12-30,16.0,11.5,7.0,9.0,2.5,-7.0,88,66,50,0.00,40.00,13,9,23,0.00
2012-12-31,11.0,8.2,2.0,8.0,5.0,-2.0,87,86,82,0.00,40.00,15,10,27,0.00
2013-1-1,14.0,2.2,-3.0,11.0,-2.5,-11.0,88,80,54,0.00,40.00,12,7,20,0.00